• In Netherlands
  • List of Countries
  • For 7 days
  • Water Temperature
  • Satellite Maps
  • Weather Map
  • Weather Widgets
  • user-avatar
    Login

    Hourly Weather La-Plata

    Today, 24 April, Monday

    Time Temperature Precipitation Wind Pressure Humidity
    00:00 +18°C° 0 mm 4 mps 761 mmHg 69%
    01:00 +17°C° 0 mm 4 mps 761 mmHg 68%
    02:00 +17°C° 0 mm 4 mps 761 mmHg 67%
    03:00 +17°C° 0 mm 4 mps 761 mmHg 67%
    04:00 +17°C° 0 mm 4 mps 761 mmHg 66%
    05:00 +15°C° 0 mm 4 mps 761 mmHg 65%
    06:00 +17°C° 0 mm 4 mps 760 mmHg 65%
    07:00 +16°C° 0 mm 5 mps 760 mmHg 64%
    08:00 +16°C° 0 mm 5 mps 760 mmHg 64%
    09:00 +17°C° 0 mm 5 mps 760 mmHg 65%
    10:00 +17°C° 0 mm 5 mps 760 mmHg 65%
    11:00 +19°C° 0 mm 5 mps 760 mmHg 66%
    12:00 +19°C° 0 mm 4 mps 759 mmHg 65%
    13:00 +20°C° 0 mm 3 mps 758 mmHg 65%
    14:00 +21°C° 0 mm 3 mps 758 mmHg 64%
    15:00 +20°C° 0 mm 2 mps 757 mmHg 68%
    16:00 +19°C° 0 mm 2 mps 757 mmHg 71%
    17:00 +18°C° 0 mm 2 mps 757 mmHg 75%
    18:00 +18°C° 0 mm 2 mps 757 mmHg 78%
    19:00 +17°C° 0 mm 2 mps 757 mmHg 81%
    20:00 +16°C° 0 mm 3 mps 757 mmHg 83%
    21:00 +16°C° 0 mm 3 mps 757 mmHg 84%
    22:00 +16°C° 0 mm 3 mps 757 mmHg 85%
    23:00 +15°C° 0 mm 4 mps 757 mmHg 86%

    Tomorrow, 25 April, Tuesday

    Time Temperature Precipitation Wind Pressure Humidity
    00:00 +15°C° 0 mm 4 mps 757 mmHg 87%
    01:00 +16°C° 0 mm 3 mps 756 mmHg 88%
    02:00 +14°C° 0 mm 3 mps 756 mmHg 90%
    03:00 +14°C° 0 mm 3 mps 756 mmHg 91%
    04:00 +14°C° 0 mm 3 mps 755 mmHg 92%
    05:00 +14°C° 0 mm 2 mps 755 mmHg 93%
    06:00 +16°C° 0.3 mm 2 mps 755 mmHg 90%
    07:00 +17°C° 0.3 mm 2 mps 755 mmHg 87%
    08:00 +19°C° 0.3 mm 1 mps 755 mmHg 84%
    09:00 +19°C° 0.8 mm 2 mps 755 mmHg 80%
    10:00 +20°C° 0.8 mm 2 mps 754 mmHg 75%
    11:00 +21°C° 0.8 mm 2 mps 754 mmHg 71%
    12:00 +20°C° 0.6 mm 2 mps 754 mmHg 75%
    13:00 +20°C° 0.6 mm 2 mps 753 mmHg 79%
    14:00 +19°C° 0.6 mm 3 mps 752 mmHg 84%
    15:00 +16°C° 1.4 mm 5 mps 752 mmHg 85%
    16:00 +15°C° 1.4 mm 8 mps 752 mmHg 87%
    17:00 +12°C° 1.4 mm 10 mps 752 mmHg 88%
    18:00 +11°C° 2.7 mm 10 mps 752 mmHg 89%
    19:00 +11°C° 2.7 mm 9 mps 752 mmHg 90%
    20:00 +10°C° 2.7 mm 9 mps 752 mmHg 91%
    21:00 +10°C° 0.6 mm 9 mps 752 mmHg 93%
    22:00 +11°C° 0.6 mm 8 mps 753 mmHg 94%
    23:00 +11°C° 0.6 mm 7 mps 753 mmHg 96%

    Day after tomorrow, 26 April, Wednesday

    Time Temperature Precipitation Wind Pressure Humidity
    00:00 +11°C° 0.1 mm 8 mps 753 mmHg 94%
    01:00 +11°C° 0.1 mm 8 mps 753 mmHg 93%
    02:00 +11°C° 0.1 mm 8 mps 752 mmHg 91%
    03:00 +10°C° 0 mm 8 mps 752 mmHg 90%
    04:00 +8°C° 0 mm 9 mps 753 mmHg 88%
    05:00 +7°C° 0 mm 9 mps 753 mmHg 87%
    06:00 +7°C° 0 mm 10 mps 753 mmHg 83%
    07:00 +7°C° 0 mm 10 mps 754 mmHg 80%
    08:00 +7°C° 0 mm 10 mps 754 mmHg 77%
    09:00 +9°C° 0 mm 10 mps 755 mmHg 69%
    10:00 +11°C° 0 mm 10 mps 755 mmHg 61%
    11:00 +13°C° 0 mm 11 mps 755 mmHg 53%
    12:00 +13°C° 0 mm 11 mps 755 mmHg 51%
    13:00 +14°C° 0 mm 11 mps 755 mmHg 48%
    14:00 +16°C° 0 mm 11 mps 755 mmHg 46%
    15:00 +14°C° 0 mm 10 mps 755 mmHg 49%
    16:00 +13°C° 0 mm 9 mps 755 mmHg 52%
    17:00 +12°C° 0 mm 8 mps 755 mmHg 55%
    18:00 +12°C° 0 mm 8 mps 756 mmHg 57%
    19:00 +11°C° 0 mm 8 mps 756 mmHg 59%
    20:00 +11°C° 0 mm 8 mps 756 mmHg 62%
    21:00 +10°C° 0 mm 8 mps 757 mmHg 64%
    22:00 +9°C° 0 mm 7 mps 757 mmHg 67%
    23:00 +9°C° 0 mm 7 mps 758 mmHg 69%

    27 April, Thursday

    Time Temperature Precipitation Wind Pressure Humidity
    00:00 +9°C° 0 mm 7 mps 758 mmHg 69%
    01:00 +8°C° 0 mm 7 mps 758 mmHg 69%
    02:00 +8°C° 0 mm 7 mps 759 mmHg 69%
    03:00 +6°C° 0 mm 7 mps 759 mmHg 70%
    04:00 +6°C° 0 mm 7 mps 759 mmHg 71%
    05:00 +7°C° 0 mm 6 mps 760 mmHg 72%
    06:00 +7°C° 0 mm 6 mps 760 mmHg 70%
    07:00 +8°C° 0 mm 6 mps 761 mmHg 68%
    08:00 +8°C° 0 mm 6 mps 761 mmHg 66%
    09:00 +11°C° 0 mm 6 mps 761 mmHg 59%
    10:00 +14°C° 0 mm 6 mps 761 mmHg 53%
    11:00 +16°C° 0 mm 6 mps 762 mmHg 46%
    12:00 +17°C° 0 mm 6 mps 761 mmHg 45%
    13:00 +19°C° 0 mm 6 mps 761 mmHg 44%
    14:00 +20°C° 0 mm 7 mps 760 mmHg 43%
    15:00 +17°C° 0 mm 6 mps 760 mmHg 48%
    16:00 +16°C° 0 mm 6 mps 760 mmHg 54%
    17:00 +15°C° 0 mm 6 mps 760 mmHg 59%
    18:00 +14°C° 0 mm 6 mps 760 mmHg 61%
    19:00 +13°C° 0 mm 6 mps 761 mmHg 62%
    20:00 +11°C° 0 mm 6 mps 761 mmHg 64%
    21:00 +11°C° 0 mm 6 mps 761 mmHg 64%
    22:00 +11°C° 0 mm 6 mps 761 mmHg 64%
    23:00 +11°C° 0 mm 6 mps 762 mmHg 64%

    28 April, Friday

    Time Temperature Precipitation Wind Pressure Humidity
    00:00 +11°C° 0 mm 6 mps 762 mmHg 63%
    01:00 +11°C° 0 mm 6 mps 762 mmHg 62%
    02:00 +10°C° 0 mm 6 mps 762 mmHg 60%
    03:00 +10°C° 0 mm 6 mps 762 mmHg 60%
    04:00 +10°C° 0 mm 6 mps 763 mmHg 60%
    05:00 +10°C° 0 mm 6 mps 763 mmHg 61%
    06:00 +10°C° 0 mm 6 mps 763 mmHg 61%
    07:00 +10°C° 0 mm 6 mps 764 mmHg 61%
    08:00 +11°C° 0 mm 6 mps 764 mmHg 61%
    09:00 +14°C° 0 mm 5 mps 765 mmHg 57%
    10:00 +16°C° 0 mm 5 mps 765 mmHg 53%
    11:00 +19°C° 0 mm 5 mps 765 mmHg 50%
    12:00 +20°C° 0 mm 5 mps 764 mmHg 49%
    13:00 +21°C° 0 mm 4 mps 764 mmHg 48%
    14:00 +22°C° 0 mm 4 mps 764 mmHg 47%
    15:00 +21°C° 0 mm 3 mps 764 mmHg 54%
    16:00 +19°C° 0 mm 3 mps 764 mmHg 60%
    17:00 +17°C° 0 mm 3 mps 764 mmHg 67%
    18:00 +16°C° 0 mm 3 mps 764 mmHg 70%
    19:00 +14°C° 0 mm 3 mps 765 mmHg 73%
    20:00 +13°C° 0 mm 3 mps 765 mmHg 76%
    21:00 +13°C° 0 mm 3 mps 765 mmHg 77%
    22:00 +13°C° 0 mm 3 mps 765 mmHg 78%
    23:00 +13°C° 0 mm 3 mps 765 mmHg 78%

    29 April, Saturday

    Time Temperature Precipitation Wind Pressure Humidity
    00:00 +12°C° 0 mm 3 mps 765 mmHg 79%
    01:00 +12°C° 0 mm 3 mps 765 mmHg 79%
    02:00 +12°C° 0 mm 3 mps 765 mmHg 79%
    03:00 +12°C° 0 mm 3 mps 765 mmHg 79%
    04:00 +11°C° 0 mm 3 mps 765 mmHg 80%
    05:00 +11°C° 0 mm 3 mps 765 mmHg 80%
    06:00 +12°C° 0 mm 3 mps 765 mmHg 77%
    07:00 +13°C° 0 mm 3 mps 765 mmHg 74%
    08:00 +14°C° 0 mm 3 mps 766 mmHg 72%
    09:00 +17°C° 0 mm 4 mps 765 mmHg 66%
    10:00 +19°C° 0 mm 4 mps 765 mmHg 59%
    11:00 +21°C° 0 mm 4 mps 765 mmHg 53%
    12:00 +22°C° 0 mm 4 mps 765 mmHg 52%
    13:00 +22°C° 0 mm 4 mps 764 mmHg 50%
    14:00 +24°C° 0 mm 3 mps 764 mmHg 48%
    15:00 +21°C° 0 mm 3 mps 764 mmHg 54%
    16:00 +19°C° 0 mm 3 mps 764 mmHg 60%
    17:00 +17°C° 0 mm 2 mps 764 mmHg 67%
    18:00 +17°C° 0 mm 3 mps 764 mmHg 67%
    19:00 +16°C° 0 mm 3 mps 764 mmHg 68%
    20:00 +14°C° 0 mm 4 mps 765 mmHg 69%
    21:00 +14°C° 0 mm 4 mps 765 mmHg 72%
    22:00 +14°C° 0 mm 4 mps 765 mmHg 75%
    23:00 +13°C° 0 mm 4 mps 765 mmHg 77%
    Show more